{"data":{"norad_id":62785,"epoch":"2026-09-22T21:08:59.845344Z","epoch_age_seconds":112792,"freshness":"FRESH","line1":"1 62785U 25016A   26265.88124821  .00000051  00000+0  59901-4 0  9990","line2":"2 62785  88.9673  73.7086 0015708 244.6591 115.2934 13.51025084 85551","mean_motion":13.51025084,"eccentricity":0.0015708,"inclination_deg":88.9673,"raan_deg":73.7086,"arg_perigee_deg":244.6591,"mean_anomaly_deg":115.2934,"bstar":5.9901e-5,"rev_number":8555,"period_min":106.58573382935,"perigee_km":1056.7922504844,"apogee_km":1080.1865720179,"semimajor_km":7446.6264112511,"source":"CELESTRAK","updated_at":"2026-09-23T09:00:21.632849Z"}}